Torna al catalogo

FENGYUN 1C DEB

AttivoPO
NORAD 31346·DEBRIS·🇨🇳 China

Lanciato May 10, 1999 da Taiyuan Satellite Launch Center

Loading…

Prossimi Passaggi (prossime 24 ore)

TLE

AggiornatoSource: Space-Track

Epoca: Sep 14, 2026, 06:33 UTC

1 31346U 99025BRA 26257.27295409  .00010147  00000-0  41802-3 0  9993
2 31346  98.8768 275.7858 0091103 172.7087 187.5494 15.20567555 36618

Traccia FENGYUN 1C DEB in tempo reale con AllMySat

Download on the App Store